map of KEOE home
Great Circle Mapper logo
KEOE - Airport
Location
City:  Newberry, South Carolina, United States
Name:Newberry County Airport
ICAO:KEOE
FAA:EOE

Details
Type:Airport (Airfield)
Use:Public/Civil
Latitude:3418'34"N (34.309333)
Longitude:8138'26"W (-81.640666)
Datum:WGS 1984
Elevation:570 ft (174 m)
Variation:6.9W (WMM2010 magnetic declination)
Runways:1
Longest:4001 × 75 ft (1220 × 23 m), paved

Time
Time Zone:UTC-5 (DST-4)
Local Time:

Weather
METAR:KEOE 270155Z AUTO 21004KT 10SM SCT120 07/02 A3009 RMK AO2

Related Locations
Nearby:
Farthest:MGV: 11485 mi / 18484 km
Margaret River, WA, AU

Find:

   beyond  
but within

Other Information
Maps:
NOTAMs:
Links:
Sources:

  
flag of United States
flag of South Carolina
  

Sectional Chart

Flight Planning
at skyvector.com

Satellite Image

Google Maps Satellite View

 

Copyright © 2004-2014 Karl L. Swartz. All rights reserved.
The Great Circle Mapper name and logo are trademarks of the Great Circle Mapper.
All other trademarks mentioned herein belong to their respective owners.
Please see credits for attibutions and further copyright information.

  Follow gcmap on Facebook Follow gcmap on Twitter

hCard Microformat

Geo Microformat